User: anonymous   Login
Location: Bamobli
(6.6379°N, 10.9396°W)
Time: 03:24:22
(UTC+00:00)
Language:

Cosmos 2237 Rocket - Orbit

View from above orbital plane
View from above orbital plane
View from above satellite
View from above satellite

Ground track
Ground track

The orbit data is extracted from the following two-line orbital elements,

1 22566U 93016B   20221.92374569 +.00000067 +00000-0 +59334-4 0  9993
2 22566 071.0068 175.6103 0010841 197.2163 162.8594 14.14961232413759
Epoch (UTC): 08 August 2020 22:10:11
Eccentricity: 0.0010841
inclination: 71.0068°
perigee height: 834 km
apogee height: 850 km
right ascension of ascending node: 175.6103°
argument of perigee: 197.2163°
revolutions per day: 14.14961232
mean anomaly at epoch: 162.8594°
orbit number at epoch: 41375

The dashed part of the orbit path shows where the satellite is in the earth's shadow,  

DLR